Theta_e
294 295 296 297 299 299 300 300 300 300 300 301 301 301 302 303 303 301 299 303 296 289 291 295 296 292 294 293 289 293 292 293 291 285 285 285 283 285 285 287 286 284 282 282 284 281 278 295 294 288 295 302 304 305
292 293 295 296 297 299 299 300 300 300 300 301 301 301 302 303 305 304 297 303 302 294 292 298 299 301 299 297 294 296 293 293 292 288 288 291 286 288 286 281 290 282 287 286 287 287 296 299 298 301 302 304 306 306
291 293 294 295 296 298 299 299 299 299 300 300 300 301 303 304 305 304 301 302 300 293 287 290 292 300 302 302 302 290 295 297 295 299 292 291 286 290 284 285 287 290 294 287 289 293 295 298 299 301 300 299 305 308
291 292 293 294 296 297 298 299 299 299 299 300 300 301 304 304 304 305 301 299 299 289 285 289 300 299 303 302 302 301 298 299 299 298 290 288 287 293 288 289 288 291 292 290 290 294 295 297 299 300 303 305 304 306
290 291 292 293 295 296 298 298 298 299 299 300 300 302 303 305 305 304 301 300 301 294 287 289 297 301 303 302 301 300 298 297 294 290 287 285 291 289 291 292 289 293 291 289 288 296 296 296 298 299 301 300 300 301
290 290 291 292 294 295 297 298 298 299 299 300 300 302 302 302 302 297 289 298 302 301 292 286 294 296 300 301 299 299 297 296 293 288 288 292 296 291 287 286 292 294 296 297 294 298 298 298 299 300 298 299 301 301
289 290 291 292 293 295 296 298 298 298 299 299 301 303 302 302 302 295 293 300 301 301 292 286 288 293 297 297 294 294 297 294 292 287 287 290 292 293 289 285 292 293 295 296 298 298 296 298 297 302 302 301 303 306
289 290 290 291 293 294 296 297 297 298 299 299 302 303 302 301 301 298 303 302 302 296 299 287 286 288 294 288 287 292 288 288 288 288 289 290 292 291 284 290 293 294 295 295 297 299 298 298 300 299 301 300 301 300
288 289 290 291 292 294 295 297 298 298 298 299 302 300 298 294 293 298 300 301 305 299 291 291 286 284 294 290 289 290 290 285 291 285 288 290 287 284 288 290 292 294 294 295 298 298 298 297 298 299 300 300 298 297
288 289 289 290 292 293 295 297 297 298 298 297 294 289 285 291 298 300 299 295 295 296 297 290 294 286 290 288 288 287 288 286 283 287 291 286 286 292 294 295 296 296 297 298 295 295 295 296 298 299 298 299 297 296
288 289 289 290 292 293 295 296 297 297 297 290 286 286 292 297 293 290 285 286 289 286 291 293 293 287 294 286 287 291 286 288 283 287 285 285 285 292 296 296 297 297 297 299 300 300 301 300 300 299 297 297 296 295
288 289 289 290 291 293 295 296 296 296 294 291 292 293 292 287 286 285 285 288 287 286 291 290 291 293 293 296 291 291 286 287 280 291 285 282 291 293 293 293 295 298 298 299 301 301 301 299 296 296 295 296 295 293
288 288 289 290 291 293 295 296 297 298 297 294 290 287 287 285 282 281 280 283 286 290 290 289 286 290 292 293 289 287 282 282 291 285 282 288 292 292 292 293 293 295 297 298 300 302 300 299 297 296 294 291 290 288
288 288 289 290 291 292 294 296 298 297 294 287 285 282 283 281 284 286 288 289 291 291 290 290 288 289 290 287 288 282 286 287 281 279 282 288 290 291 292 294 294 292 291 291 293 294 292 289 287 287 287 287 286 285
287 288 289 289 291 292 294 298 297 296 291 286 287 282 283 289 290 290 292 291 291 292 291 289 289 290 287 285 286 285 282 278 282 282 285 289 291 291 291 292 291 290 287 287 288 286 286 286 285 285 286 286 286 285
287 288 289 291 291 294 295 296 296 294 292 288 287 284 287 286 287 289 289 288 292 292 292 291 287 285 283 285 282 281 280 280 283 286 288 290 290 288 287 288 288 285 285 285 285 285 285 284 284 284 285 285 285 285
286 285 290 293 295 295 296 293 294 289 286 285 285 290 289 289 288 289 290 289 292 290 286 287 283 281 287 282 281 286 283 284 287 287 289 289 288 287 287 286 285 285 285 284 284 285 284 285 285 285 283 284 286 286
284 287 289 292 294 295 295 293 290 287 284 286 285 288 290 291 290 290 291 292 290 289 289 286 289 283 281 280 282 286 286 287 287 287 287 288 287 287 288 287 286 286 285 284 284 284 284 284 283 283 284 285 285 285
286 287 289 290 291 292 289 290 291 284 286 287 288 289 290 290 292 293 292 292 293 294 291 288 283 283 284 287 287 287 287 287 285 286 286 287 287 286 286 287 287 287 286 285 285 285 286 286 286 286 286 285 283 283
287 288 289 290 291 290 286 287 293 287 284 286 289 287 289 288 291 292 292 291 290 289 286 284 283 283 284 286 288 288 289 290 288 285 286 288 288 288 287 287 287 288 288 288 287 287 286 286 287 287 286 285 283 282
287 292 291 292 291 292 289 288 287 288 287 286 289 288 287 290 288 288 287 291 288 285 282 283 284 285 287 288 290 290 290 290 289 287 286 286 288 289 289 289 289 288 287 286 285 284 284 283 283 284 284 283 283 282
287 294 293 293 289 289 288 291 287 290 287 287 287 288 285 285 286 287 290 286 283 283 285 285 286 286 286 287 288 290 290 289 290 289 288 289 288 287 287 288 287 286 285 285 284 283 283 284 284 284 283 282 282 281
287 292 291 289 285 285 283 291 285 286 282 284 286 284 284 285 287 291 285 285 284 286 287 287 287 289 288 289 289 289 290 291 290 289 288 288 288 288 287 287 287 285 283 283 284 283 283 283 283 282 282 281 280 279
291 289 285 284 284 280 286 284 286 284 285 283 282 281 282 285 288 285 282 283 285 287 286 286 288 287 288 288 287 287 288 290 288 288 288 287 285 285 286 285 285 285 284 284 283 282 281 281 281 281 280 279 278 277
282 280 284 279 284 281 280 281 281 281 279 282 281 281 283 286 282 281 281 283 286 286 287 288 287 288 286 286 287 287 290 289 286 285 287 287 286 284 283 283 284 284 284 281 279 280 279 279 277 276 276 276 274 273
277 279 280 280 281 280 280 278 279 280 281 280 281 283 285 283 279 278 282 285 286 287 286 286 286 286 286 287 286 286 287 288 286 283 284 287 286 284 281 279 278 279 283 282 280 279 278 277 274 272 271 270 269 271
276 277 282 287 285 284 282 284 284 282 279 279 281 282 281 277 277 280 285 286 285 287 289 290 288 286 284 283 284 285 286 286 284 282 283 282 283 284 283 279 277 279 281 281 281 279 276 274 272 270 269 269 268 267
281 282 278 283 283 284 282 282 281 280 281 284 283 279 278 278 278 282 283 284 286 286 287 288 288 286 284 283 283 283 282 281 281 281 280 279 279 277 275 275 274 274 274 276 277 276 274 273 271 269 267 266 266 268
281 284 284 279 283 282 281 281 281 283 286 285 281 278 277 278 282 283 283 284 286 285 283 282 282 283 283 283 283 283 284 285 281 276 275 274 275 275 277 276 274 273 271 269 270 271 270 270 269 269 268 266 265 265
282 285 281 279 277 276 278 282 282 285 285 284 282 279 278 278 280 286 285 284 283 282 283 283 283 283 281 281 280 280 282 284 285 282 277 275 274 277 277 275 274 273 272 270 269 269 270 268 269 268 267 266 265 263
285 284 280 279 278 279 282 284 286 286 285 283 283 280 277 278 280 281 279 282 284 284 283 283 283 284 282 281 281 279 276 279 279 279 278 277 277 276 275 275 275 274 272 271 270 269 267 266 265 264 263 263 262 262
286 281 279 276 278 282 285 282 281 280 280 280 279 280 280 280 276 277 278 280 284 282 281 281 279 278 279 278 279 278 277 277 276 276 275 275 274 274 273 273 272 271 270 269 268 267 266 265 264 264 263 262 262 261
283 283 282 280 279 279 282 282 280 280 281 280 280 280 280 277 273 277 279 280 280 279 278 278 277 276 275 274 273 272 271 272 271 272 272 272 271 272 272 271 270 269 267 267 266 266 265 264 263 263 262 262 261 261
Wind_Speed
15 17 18 16 14 13 13 15 16 18 19 20 22 24 26 27 28 19 11 15 15 12 22 23 27 24 17 16 16 17 11 11 7 10 11 12 8 8 14 18 19 18 17 14 9 12 19 15 13 16 16 22 22 13
16 17 18 17 17 16 15 15 17 19 20 21 23 25 25 25 24 24 11 13 15 13 12 14 31 28 31 34 19 14 13 9 8 6 6 7 11 10 14 16 20 18 17 15 17 13 16 14 15 19 21 22 13 13
15 17 19 19 18 19 16 15 18 19 21 22 24 26 25 22 23 23 11 10 11 10 3 6 14 21 24 24 21 18 9 11 9 9 8 9 12 9 12 19 24 19 20 13 13 18 21 18 18 20 22 24 22 4
16 17 18 21 20 20 17 16 18 20 21 22 24 28 18 20 23 22 9 6 8 3 5 3 8 17 21 19 21 14 16 11 14 8 6 3 3 8 15 16 12 12 15 22 23 20 18 21 18 20 19 17 24 13
18 17 18 21 21 20 20 16 18 20 21 22 23 19 17 19 25 16 6 7 10 5 1 2 6 14 16 19 20 20 20 19 6 5 5 6 4 1 7 7 12 14 18 14 15 17 15 20 18 19 16 18 22 24
18 18 19 21 21 21 22 17 18 20 21 20 23 11 2 17 16 6 2 2 7 3 3 2 3 4 7 9 13 12 8 6 7 5 2 5 11 5 5 7 18 18 20 21 21 20 19 25 22 22 16 18 25 25
17 18 19 20 21 22 23 17 18 20 19 19 20 11 9 6 2 1 1 3 14 5 3 3 3 3 4 3 3 2 4 2 1 1 4 5 8 3 5 14 22 18 21 21 22 21 22 21 16 6 11 16 27 14
18 19 18 20 22 22 23 16 18 20 17 24 11 11 12 3 2 2 2 12 15 4 5 3 2 3 2 2 2 1 2 3 5 3 3 6 4 5 7 22 20 20 21 22 22 22 22 22 18 12 10 10 19 12
18 19 18 20 21 22 23 15 16 17 14 24 11 14 4 2 1 1 7 3 8 3 2 4 6 4 6 2 3 1 0 2 2 4 5 5 6 10 14 18 19 21 20 20 20 21 22 24 20 12 8 4 10 8
19 20 18 19 21 22 23 14 14 14 8 12 5 4 2 1 5 8 2 2 1 2 3 4 5 4 4 3 4 4 3 3 3 6 3 4 10 21 22 21 20 21 20 20 17 19 17 20 13 14 14 13 10 7
19 18 17 18 20 21 21 13 13 11 2 2 1 1 2 3 1 1 3 4 3 3 4 6 5 7 4 6 5 6 4 2 4 3 5 5 7 10 3 8 9 13 14 17 9 11 3 11 13 9 8 9 10 11
18 17 17 18 20 21 21 13 12 5 2 2 2 3 1 1 2 4 5 4 6 6 5 2 4 5 4 1 2 2 3 2 6 6 3 5 3 10 13 14 14 13 13 12 5 11 8 3 3 6 5 3 9 11
18 17 17 18 20 22 20 14 15 5 10 2 3 3 3 3 5 5 8 5 5 6 6 4 4 3 3 1 1 2 4 6 4 4 5 2 10 12 13 10 13 12 15 12 8 3 7 6 7 6 7 13 15 16
17 16 17 20 20 20 22 18 12 10 2 3 4 6 5 5 5 4 5 5 4 5 8 6 4 3 3 4 3 4 5 4 4 5 5 7 13 13 12 8 9 9 14 14 13 15 17 16 16 15 12 13 15 15
14 16 20 22 22 20 18 10 9 2 3 3 3 4 5 2 2 4 3 7 8 7 7 5 3 2 2 2 4 4 3 4 5 3 4 8 14 12 11 7 8 8 8 10 11 14 15 16 16 14 13 14 15 16
10 16 16 24 20 17 12 8 3 3 2 3 5 3 2 4 1 4 6 6 5 6 5 2 4 4 4 4 5 6 3 3 3 4 6 9 13 11 9 9 7 6 8 10 10 11 14 17 17 17 15 14 15 17
7 6 12 13 10 10 13 5 4 3 2 3 2 1 4 3 5 6 6 4 2 3 2 3 4 4 3 3 4 3 2 4 4 5 6 11 10 7 7 7 6 9 12 13 13 13 13 13 14 17 18 15 16 15
6 6 16 17 7 8 4 4 4 5 5 2 3 3 2 3 6 5 3 5 4 2 2 1 0 3 2 3 1 4 6 4 6 7 6 8 8 8 6 7 8 11 12 12 13 13 13 15 17 13 16 15 16 15
10 11 17 17 9 3 5 5 4 3 2 4 3 2 2 3 3 4 4 4 2 3 1 0 1 2 1 5 5 6 4 5 6 6 6 7 6 7 7 7 9 11 11 12 13 11 10 13 11 10 10 10 12 10
17 22 23 17 9 4 4 3 2 2 3 4 4 3 4 4 4 4 5 4 3 1 2 1 2 2 3 3 4 4 4 7 6 6 6 5 5 6 9 9 9 12 12 13 13 13 11 12 10 10 10 11 11 11
8 7 8 9 6 8 3 3 3 2 4 3 6 4 5 5 6 6 4 3 3 3 2 2 2 1 1 0 2 4 6 4 5 7 6 6 4 6 7 7 10 9 10 10 11 12 12 11 10 10 11 11 11 11
5 10 5 7 2 2 3 1 3 4 2 5 6 4 4 4 4 3 4 3 3 2 2 1 1 2 2 3 6 7 10 11 10 7 7 7 7 7 8 8 9 10 10 10 10 10 10 9 9 9 10 10 11 10
12 5 5 3 3 3 1 2 3 4 4 6 5 4 4 3 3 4 3 3 3 2 1 3 6 6 6 7 9 9 8 9 8 9 9 9 9 9 9 10 9 10 10 10 9 10 10 12 11 10 9 10 9 9
13 2 2 3 3 3 2 2 3 3 3 5 4 4 4 3 4 2 4 3 2 3 3 3 5 7 8 10 8 8 8 9 10 10 9 9 10 10 10 10 10 10 10 9 9 9 9 9 10 8 9 9 9 8
4 2 2 4 2 5 4 3 2 3 3 3 3 3 3 3 2 2 4 4 4 4 4 3 3 6 8 8 6 5 7 8 9 10 8 8 11 10 10 10 10 9 7 7 9 9 9 9 9 10 10 9 11 11
4 3 3 4 5 5 6 5 5 5 6 3 2 3 2 3 3 4 3 6 4 3 3 6 8 6 8 8 9 8 8 8 9 10 8 6 8 9 9 9 9 7 6 7 9 10 11 10 10 12 11 13 12 10
4 3 3 2 5 6 4 6 7 5 4 4 4 3 4 4 4 3 3 5 3 2 3 6 9 9 9 9 9 9 9 10 11 10 9 12 12 10 9 9 11 7 7 9 9 10 10 10 10 10 10 9 10 9
2 4 6 5 5 4 3 6 4 4 4 5 6 3 3 4 4 3 3 3 5 7 9 9 9 8 9 8 8 8 9 10 12 12 13 12 11 10 11 10 11 16 11 10 10 9 10 10 10 10 11 10 8 8
2 7 7 6 4 5 4 3 3 2 1 5 4 4 4 4 3 3 4 5 4 6 8 9 8 8 8 8 8 6 5 5 9 14 15 9 8 7 7 8 8 8 8 11 16 13 13 11 10 10 11 9 8 8
7 6 5 5 4 3 3 4 3 4 6 7 7 8 9 4 6 4 4 5 5 6 7 7 7 7 10 9 8 9 8 6 4 7 9 9 8 7 7 7 8 8 7 9 9 10 12 10 9 8 8 7 8 7
6 5 5 5 4 4 5 6 6 7 8 8 9 11 9 6 5 8 9 5 7 7 8 8 8 7 8 8 8 9 8 7 11 15 13 10 8 8 7 7 7 7 7 8 8 8 8 8 9 10 10 11 10 9
3 4 7 7 8 7 4 3 5 9 8 9 9 7 6 5 5 4 7 7 5 8 10 9 9 9 9 8 10 11 13 9 9 10 12 9 9 9 9 8 7 7 8 9 8 8 10 10 9 10 10 12 10 10
9 10 12 8 6 4 3 3 4 5 4 4 4 4 5 5 5 3 4 9 7 8 9 9 9 10 13 13 13 11 13 11 15 14 13 12 11 10 8 7 7 8 10 9 9 10 11 14 12 12 11 10 9 9
Wind_Direction
316 322 323 312 311 264 260 267 270 272 272 272 270 269 266 255 239 228 226 206 209 235 249 235 239 249 245 247 248 262 253 234 233 230 236 237 239 228 248 248 249 248 241 234 233 247 257 263 249 237 259 294 282 288
314 317 314 316 308 296 269 272 277 278 279 277 278 277 274 263 241 219 229 205 205 223 266 229 232 241 233 243 258 254 244 216 210 200 222 236 238 261 248 258 247 248 243 250 230 245 252 268 298 294 296 302 295 317
315 313 316 317 309 312 278 279 282 285 286 282 282 283 280 249 232 218 228 215 211 233 245 217 226 231 238 243 235 245 242 226 210 226 248 233 235 237 236 238 258 255 266 261 281 262 261 271 274 275 289 298 301 173
310 311 312 313 312 311 290 282 286 290 291 289 290 298 265 248 237 220 221 176 197 137 233 257 235 230 228 227 235 225 253 256 250 194 222 246 229 245 238 252 251 251 254 255 260 248 257 261 261 268 279 298 316 215
301 307 309 311 315 307 303 287 292 295 296 295 298 294 286 264 240 209 178 184 184 185 220 242 248 236 237 209 220 220 223 228 210 203 194 207 243 191 284 282 257 247 254 253 264 262 269 274 284 279 280 288 291 295
296 302 305 309 313 311 310 293 297 299 300 301 303 266 0 109 106 94 84 236 187 160 186 242 317 283 204 202 223 230 204 211 197 205 199 233 228 234 233 233 249 244 249 257 268 268 263 270 276 283 277 293 289 278
297 296 303 306 312 314 310 297 299 304 302 303 301 205 179 239 323 137 209 163 174 120 230 168 193 9 342 72 36 31 244 291 342 331 234 259 262 323 257 261 269 267 270 278 280 282 266 265 261 259 289 319 305 252
291 294 301 304 312 313 310 297 301 308 308 317 263 189 186 91 75 256 45 147 159 212 234 168 106 167 190 130 122 310 136 167 192 201 221 232 246 211 248 251 264 270 266 264 266 260 270 279 267 267 279 312 280 204
285 290 297 302 311 313 310 295 302 310 323 333 165 115 78 20 189 45 343 298 199 253 225 192 177 159 170 124 109 123 54 258 171 225 213 209 222 228 253 265 265 263 258 260 266 263 256 260 252 253 249 324 278 167
282 283 291 301 309 312 310 292 301 312 340 356 10 80 191 215 306 287 55 177 331 295 255 237 112 127 182 170 152 146 197 236 247 222 222 240 254 258 264 263 268 272 267 266 267 274 255 262 251 241 236 212 204 184
277 279 288 298 308 310 308 290 298 312 237 51 59 97 64 327 69 65 174 193 165 230 221 234 161 139 196 173 163 204 185 222 250 175 202 237 252 262 25 248 277 287 289 284 237 271 319 263 245 213 176 169 176 154
273 278 288 294 303 308 304 283 289 275 239 173 102 124 99 135 157 188 184 183 211 222 150 198 103 108 118 266 177 167 241 216 255 136 244 256 306 10 348 342 336 330 314 306 224 233 189 197 108 101 77 144 109 89
275 277 287 290 297 303 301 280 285 238 119 161 202 161 203 154 202 220 179 197 198 153 159 149 115 109 133 164 110 159 222 242 292 228 245 318 5 355 343 357 329 332 335 325 277 193 123 130 119 103 108 98 94 89
268 279 285 285 290 295 295 287 180 153 188 224 199 179 227 170 222 215 268 171 87 115 139 131 103 146 133 180 173 216 217 268 250 244 257 13 346 351 357 18 18 18 18 30 55 84 86 85 79 76 80 89 91 92
269 282 283 279 279 275 273 172 148 108 235 227 242 201 198 139 122 96 89 99 106 121 134 123 102 147 152 154 223 225 184 244 232 315 13 343 331 359 20 20 30 36 35 49 66 81 90 90 85 81 80 87 91 89
284 300 262 255 249 253 214 248 247 225 232 220 240 178 115 109 153 101 109 104 132 148 164 181 161 163 193 197 199 212 240 246 46 7 352 344 22 29 25 23 39 32 51 64 66 76 83 87 87 86 82 81 83 89
298 240 305 295 213 201 207 223 203 222 249 249 193 293 184 191 157 143 151 151 191 138 213 181 186 190 150 209 215 219 348 62 38 44 25 35 29 31 29 32 42 62 70 71 75 75 81 91 94 88 83 83 89 87
259 289 293 323 297 196 180 203 221 193 204 225 161 153 76 100 130 109 105 143 168 217 232 159 297 219 202 240 95 73 84 84 67 54 30 48 37 27 36 61 63 67 73 75 78 77 77 81 82 83 93 93 87 78
272 285 293 300 303 280 200 184 214 198 101 106 93 96 111 90 75 121 139 149 205 253 160 151 244 265 36 39 62 88 105 117 95 84 68 63 49 51 59 81 90 87 81 82 86 84 81 75 81 85 84 82 82 77
277 279 274 268 259 239 166 156 206 188 135 138 138 168 129 120 116 116 137 151 161 166 78 345 41 38 358 40 22 86 106 114 115 101 87 90 85 82 77 82 89 94 89 84 79 77 78 74 67 73 78 81 87 89
270 222 195 204 204 223 167 145 101 107 118 120 137 133 128 145 143 137 131 167 77 14 91 45 38 43 323 200 239 123 103 120 128 102 107 105 90 95 92 83 80 82 81 80 82 77 70 72 73 74 78 79 79 80
261 197 169 213 252 75 53 66 126 120 135 141 153 139 125 134 145 135 111 74 56 45 30 40 96 109 105 87 72 69 91 89 94 104 110 108 98 85 81 80 81 79 75 78 82 87 86 85 85 83 83 83 80 80
293 226 184 142 68 66 131 157 142 155 134 161 153 123 141 136 117 143 89 81 94 23 78 111 116 117 123 130 113 113 121 119 101 93 90 85 83 82 81 80 80 88 91 85 84 86 85 86 85 88 89 85 81 75
259 181 129 130 89 115 179 213 177 118 135 157 149 130 108 125 162 100 88 76 74 120 115 109 117 103 86 80 86 92 94 92 91 89 88 93 88 78 75 74 70 71 78 84 81 81 81 83 84 83 83 81 83 84
148 106 154 108 173 153 157 139 153 125 129 126 120 119 120 143 111 88 108 112 134 125 117 105 81 97 105 101 91 74 63 93 97 93 81 85 92 87 77 66 72 84 89 96 95 89 77 69 65 63 59 70 79 70
113 162 184 140 165 153 161 141 158 179 131 89 105 125 137 97 102 106 88 123 105 105 110 117 125 125 97 90 97 94 93 83 88 79 47 97 105 107 107 100 90 66 57 90 99 95 92 86 82 78 70 58 46 69
132 155 187 208 159 161 142 166 171 149 133 148 148 137 149 122 101 82 68 36 74 34 107 111 102 100 98 87 73 66 68 73 77 81 75 58 55 63 76 87 83 71 63 72 76 85 91 91 88 86 82 75 72 63
136 133 152 158 114 148 154 136 150 156 174 142 132 105 119 65 85 56 83 83 77 67 72 77 85 93 93 90 90 94 92 99 100 97 86 73 66 69 71 68 63 60 55 54 65 72 78 83 87 88 85 79 65 66
125 132 110 118 95 61 40 32 86 43 37 117 107 97 95 60 8 114 106 95 92 98 97 96 94 101 100 102 105 115 131 130 119 107 99 103 102 87 84 86 85 82 80 74 66 70 74 79 83 86 88 85 78 63
124 128 95 58 56 69 40 352 57 20 26 76 97 101 92 82 20 48 117 131 123 113 111 115 121 124 124 122 105 74 41 40 93 121 124 121 116 109 100 96 94 95 97 97 99 100 95 87 86 86 87 84 84 81
125 95 80 82 80 92 91 79 74 61 71 82 95 107 116 122 90 40 26 20 107 125 131 122 115 113 118 120 120 107 89 49 71 88 97 106 110 104 99 94 94 97 97 98 98 100 99 93 92 91 89 88 86 85
111 103 120 121 124 151 156 90 83 100 94 101 106 120 142 111 80 52 359 339 98 95 97 101 99 90 78 70 74 79 93 98 97 96 101 103 103 100 96 94 92 95 97 99 100 102 103 101 102 102 97 95 92 90
112 111 110 115 127 111 150 118 90 88 83 95 78 68 63 55 80 90 25 11 64 85 90 86 81 80 82 82 85 80 73 74 75 80 85 92 99 104 102 100 103 104 103 102 101 104 104 108 105 103 100 96 88 79